PRAETORIAN SDA_605

Last updated on Mon Sep 07 2026 00:03:39 GMT+0000 (Coordinated Universal Time)

1 65568U 25203D 26249.62764829 .00000035 00000+0 21285-4 0 9998 2 65568 81.3006 295.4565 0007721 339.2490 20.8352 13.83133209 49953
UTC large
Height (km)
Speed (km/s)
/
Latitude / Longitude
Inclination (degrees)
Orbital Period (minutes)
Azimuth
Elevation
Range (km)
Doppler Factor

Next 0 passes for location: London (51.5072 / 0.1276)

No passes found over London.
PRAETORIAN SDA_605